Location: Hamayl? Da??
(36.7028°N, 30.1716°E)
Time: 11:20:32
(UTC+00:00)

Lacrosse 4 Rocket - Pass Details

Date: 04 August 2024
Orbit: 521 x 593 km, 68.0° (Epoch: 12 September)

Event Time Altitude Azimuth Distance (km) Brightness Sun altitude
Rises 17:43:51 0° 215° (SW) 2,663 4.9 -8.3°
Reaches altitude 10° 17:46:02 10° 220° (SW) 1,787 4.1 -8.7°
Maximum altitude 17:49:57 54° 298° (WNW) 671 2.2 -9.4°
Drops below altitude 10° 17:53:59 10° 16° (NNE) 1,843 4.2 -10.1°
Sets 17:56:16 0° 21° (NNE) 2,756 5.0 -10.5°
